[[{"header":{"parameterUnit":"m.s-1","parameterCategory":1,"la1":30.2991,"la2":30.254,"lo1":-89.0895,"lo2":-89.0444,"dy":0.0017,"dx":0.0017,"nx":28,"ny":28,"refTime":"2025-12-17T03:00:00:Z","depth":0,"parameterNumber":2,"parameterNumberName":"U-component_of_WINDS"},"data":[0,0,0,0,0,0,0,0,0,0,0,0,0,0,0,0,0,0,0,0,0,0,0,0,0,0,0,0,0,0,0,0,0,0,0,0,0,0,0,0,0,0,0,0,0,0,0,0,0,0,0,0,0,0,0,0,0,0,-4.4938,-4.4938,0,-4.4922,-4.4922,-4.4921,-4.4749,-4.4744,-4.474,-4.4736,-4.4722,-4.4726,-4.4729,0,0,0,0,0,0,0,0,0,0,0,0,0,-4.4822,-4.4825,-4.4938,-4.4938,-4.4937,-4.4922,-4.4922,-4.4921,-4.4749,-4.4744,-4.4739,-4.4734,-4.4721,-4.4725,-4.473,0,0,0,0,0,0,0,0,0,0,0,0,0,-4.4846,-4.4826,-4.4938,-4.485,-4.4842,-4.4922,-4.4922,-4.4921,-4.4751,-4.4744,-4.4738,-4.4731,-4.472,-4.4725,-4.473,-4.4895,0,0,-4.4747,-4.475,0,0,0,0,0,0,0,0,-4.4845,-4.485,-4.4863,-4.4856,-4.4847,-4.483,-4.4875,-4.4913,-4.4752,-4.4785,-4.4736,-4.4728,-4.4764,-4.4765,-4.4776,-4.4894,-4.4893,-4.4748,-4.4751,-4.4753,-4.4755,0,0,0,0,0,0,0,-4.4843,-4.485,-4.4931,-4.4863,-4.4854,-4.4812,-4.4808,-4.4882,-4.4811,-4.4782,-4.4769,-4.477,-4.4758,-4.4772,-4.4775,-4.4893,-4.4748,-4.4752,-4.4756,-4.4758,-4.5147,-4.5154,0,0,0,0,0,0,-4.4854,-4.485,-4.4932,-4.4931,-4.483,-4.4819,-4.4815,-4.4842,-4.481,-4.4799,-4.4775,-4.4762,-4.4765,-4.4769,-4.4774,-4.4966,-4.4753,-4.4759,-4.4762,-4.514,-4.5149,-4.5156,0,0,0,0,0,0,-4.4852,-4.4863,-4.4933,-4.4887,-4.4893,-4.4828,-4.486,-4.4846,-4.4859,-4.4805,-4.4792,-4.4802,-4.476,-4.4766,-4.4866,-4.4963,-4.4761,-4.4766,-4.5132,-4.5143,-4.5152,-4.5351,0,0,0,0,0,0,-4.4849,-4.4863,-4.4924,-4.489,-4.4896,-4.5025,-4.4866,-4.485,-4.4869,-4.4851,-4.4826,-4.4816,-4.4756,-4.4859,-4.4872,-4.4967,-4.477,-4.5123,-4.5137,-4.5149,-4.5336,-4.5367,-4.5394,0,0,0,0,0,-4.4846,-4.4981,-4.4928,-4.4939,-4.4971,-4.5031,-4.5035,-4.4962,-4.4877,-4.4939,-4.4904,-4.4817,-4.495,-4.4871,-4.4884,-4.4982,-4.5116,-4.5133,-4.5148,-4.5323,-4.5361,-4.5393,0,0,0,0,0,0,-4.5029,-4.4975,-4.4916,-4.5043,-4.5043,-4.5002,-4.5077,-4.5004,-4.5029,-4.5011,-4.492,-4.4916,-4.5031,-4.5015,-4.4928,-4.514,-4.5018,-4.5037,-4.5147,-4.5182,-4.5211,-4.5214,-4.4775,0,0,0,0,0,-4.5084,-4.5137,-4.5086,-4.5204,-4.5207,-4.5143,-4.5166,-4.511,-4.5106,-4.5105,-4.5078,-4.5079,-4.512,-4.515,-4.5185,-4.5332,-4.5325,-4.5406,-4.5435,-4.5459,-4.5478,-4.5557,-4.5593,-4.5208,-4.5208,-4.5208,0,0,-4.5199,-4.5175,-4.5214,-4.524,-4.5233,-4.5292,-4.5144,-4.5211,-4.5253,-4.5116,-4.5209,-4.519,-4.5184,-4.5309,-4.5362,-4.53,-4.5582,-4.548,-4.5499,-4.5505,-4.5577,-4.5613,-4.5646,-4.5219,-4.5217,-4.5215,0,0,-4.5438,-4.5425,-4.5522,-4.5519,-4.551,-4.5466,-4.549,-4.546,-4.5442,-4.5534,-4.5432,-4.5482,-4.5555,-4.5556,-4.5567,-4.5808,-4.5729,-4.5821,-4.5975,-4.6053,-4.6083,-4.611,-4.6198,-4.6231,-4.5839,-4.584,-4.584,0,-4.5582,-4.5664,-4.5582,-4.5656,-4.5672,-4.5549,-4.5648,-4.5649,-4.5653,-4.5667,-4.5596,-4.5687,-4.5675,-4.5799,-4.5858,-4.587,-4.5896,-4.5825,-4.6085,-4.6111,-4.6135,-4.6218,-4.6251,-4.5851,-4.585,-4.5849,-4.5848,0,-4.5843,-4.5902,-4.5982,-4.5989,-4.6013,-4.61,-4.6032,-4.6066,-4.6008,-4.5973,-4.6069,-4.605,-4.608,-4.6105,-4.6048,-4.6222,-4.6184,-4.6101,-4.5977,-4.6184,-4.6261,-4.6292,-4.5868,-4.5864,-4.586,-4.5857,0,0,-4.6198,-4.6159,-4.619,-4.6193,-4.6175,-4.6219,-4.6301,-4.633,-4.6362,-4.6369,-4.6437,-4.6502,-4.6425,-4.6437,-4.638,-4.6448,-4.6643,-4.6356,-4.6355,-4.6413,-4.6837,-4.6902,-4.694,-4.659,-4.6596,-4.66,-4.6838,0,-4.6431,-4.6568,-4.6496,-4.6643,-4.6698,-4.6582,-4.6654,-4.6651,-4.662,-4.6663,-4.6628,-4.6677,-4.6571,-4.6578,-4.664,-4.6607,-4.6728,-4.6588,-4.6655,-4.6658,-4.6662,-4.6979,-4.7047,-4.7273,-4.6867,-4.6872,-4.6876,0,-4.672,-4.674,-4.6893,-4.6866,-4.6886,-4.6952,-4.6974,-4.7015,-4.7011,-4.6983,-4.6998,-4.6924,-4.7004,-4.6879,-4.6989,-4.6896,-4.6918,-4.6906,-4.6913,-4.6919,-4.6782,-4.6996,-4.7342,-4.7378,-4.6922,-4.6918,-4.6915,0,-4.6968,-4.7032,-4.7132,-4.7138,-4.7108,-4.7158,-4.7148,-4.7136,-4.7159,-4.7178,-4.7192,-4.7221,-4.7238,-4.7262,-4.7199,-4.7114,-4.7318,-4.7188,-4.73,-4.7302,-4.735,-4.7349,-4.7708,-4.7361,-4.7361,-4.736,-4.7359,0,-4.7237,-4.7335,-4.7243,-4.7305,-4.7413,-4.733,-4.7439,-4.7417,-4.7408,-4.7464,-4.7365,-4.7421,-4.7333,-4.738,-4.7331,-4.7431,-4.7439,-4.742,-4.7407,-4.7431,-4.7434,-4.7446,-4.743,-4.7369,-4.7367,-4.7365,-4.7364,0,-4.7532,-4.7474,-4.7576,-4.754,-4.7533,-4.7615,-4.7584,-4.7641,-4.7602,-4.7676,-4.7688,-4.7629,-4.768,-4.7619,-4.7663,-4.7631,-4.7767,-4.7729,-4.7769,-4.7759,-4.7876,-4.7867,-4.8258,-4.8306,-4.7927,-4.793,-4.7933,0,-4.7709,-4.7782,-4.7754,-4.7785,-4.7781,-4.7831,-4.7854,-4.7776,-4.7804,-4.7805,-4.7862,-4.7904,-4.7933,-4.802,-4.7982,-4.8016,-4.7979,-4.8114,-4.7984,-4.8007,-4.7985,-4.7982,-4.799,-4.8142,-4.8146,-4.815,-4.8153,0,-4.8029,-4.7997,-4.8034,-4.8061,-4.8091,-4.8109,-4.812,-4.8151,-4.8069,-4.8105,-4.8156,-4.8179,-4.8225,-4.8269,-4.8293,-4.8283,-4.8207,-4.8194,-4.8222,-4.8249,-4.827,-4.8263,-4.7845,-4.8186,-4.8182,-4.818,-4.8178,-4.8177,-4.8272,-4.8333,-4.8323,-4.8368,-4.8367,-4.838,-4.8432,-4.8401,-4.8441,-4.8472,-4.8423,-4.8487,-4.8482,-4.8506,-4.8506,-4.8555,-4.8497,-4.8538,-4.8548,-4.856,-4.8579,-4.8261,-4.8559,-4.8558,-4.8557,-4.8556,-4.8555,0,-4.859,-4.8578,-4.862,-4.8638,-4.8674,-4.8596,-4.8604,-4.8639,-4.8697,-4.8698,-4.8729,-4.8788,-4.883,-4.8796,-4.8831,-4.8878,-4.8843,-4.889,-4.8887,-4.8887,-4.8627,-4.8601,-4.8917,-4.8917,-4.8917,-4.8917,-4.8917,-4.8917,-4.876,-4.8859,-4.8827,-4.8925,-4.8912,-4.8974,-4.8986,-4.8997,-4.8998,-4.9068,-4.9103,-4.9079,-4.9067,-4.91,-4.9136,-4.9125,-4.9144,-4.9204,-4.9181,-4.894,-4.8905,-4.8871,-4.8845,-4.9208,-4.9209,-4.9436,-4.9438,-4.944]},{"header":{"parameterUnit":"m.s-1","parameterCategory":1,"la1":30.2991,"la2":30.254,"lo1":-89.0895,"lo2":-89.0444,"dy":0.0017,"dx":0.0017,"nx":28,"ny":28,"refTime":"2025-12-17T03:00:00:Z","depth":0,"parameterNumber":3,"parameterNumberName":"V-component_of_WINDS"},"data":[0,0,0,0,0,0,0,0,0,0,0,0,0,0,0,0,0,0,0,0,0,0,0,0,0,0,0,0,0,0,0,0,0,0,0,0,0,0,0,0,0,0,0,0,0,0,0,0,0,0,0,0,0,0,0,0,0,0,-1.9477,-1.9477,0,-1.9469,-1.9469,-1.9469,-1.9431,-1.9431,-1.943,-1.9429,-1.942,-1.9421,-1.9421,0,0,0,0,0,0,0,0,0,0,0,0,0,-1.9462,-1.9463,-1.9477,-1.9477,-1.9477,-1.9469,-1.9469,-1.9468,-1.9432,-1.9431,-1.943,-1.9429,-1.942,-1.9421,-1.9421,0,0,0,0,0,0,0,0,0,0,0,0,0,-1.9463,-1.9463,-1.9477,-1.9458,-1.9456,-1.9469,-1.9469,-1.9468,-1.9432,-1.9431,-1.9429,-1.9428,-1.942,-1.9421,-1.9422,-1.9453,0,0,-1.9424,-1.9425,0,0,0,0,0,0,0,0,-1.9463,-1.9463,-1.9461,-1.9459,-1.9457,-1.945,-1.946,-1.9463,-1.9432,-1.9441,-1.9429,-1.9427,-1.9431,-1.9431,-1.9432,-1.9452,-1.9452,-1.9424,-1.9425,-1.9425,-1.9425,0,0,0,0,0,0,0,-1.9463,-1.9463,-1.9474,-1.9461,-1.9459,-1.9449,-1.9448,-1.946,-1.9443,-1.944,-1.9437,-1.9437,-1.943,-1.9431,-1.9432,-1.9452,-1.9424,-1.9425,-1.9425,-1.9426,-1.9497,-1.9498,0,0,0,0,0,0,-1.9465,-1.9464,-1.9474,-1.9474,-1.9457,-1.9451,-1.9449,-1.9454,-1.9443,-1.944,-1.9438,-1.9435,-1.9431,-1.9431,-1.9431,-1.9467,-1.9425,-1.9426,-1.9426,-1.9495,-1.9497,-1.9498,0,0,0,0,0,0,-1.9465,-1.9467,-1.9475,-1.9468,-1.9468,-1.9452,-1.9457,-1.9454,-1.9455,-1.9442,-1.9438,-1.9443,-1.943,-1.943,-1.9448,-1.9466,-1.9426,-1.9427,-1.9494,-1.9496,-1.9498,-1.9538,0,0,0,0,0,0,-1.9465,-1.9467,-1.9479,-1.9469,-1.9469,-1.9491,-1.9459,-1.9455,-1.9457,-1.9453,-1.9445,-1.9443,-1.9429,-1.9446,-1.9448,-1.9466,-1.9428,-1.9492,-1.9494,-1.9497,-1.9535,-1.9541,-1.9547,0,0,0,0,0,-1.9465,-1.949,-1.9479,-1.9481,-1.9483,-1.9492,-1.9492,-1.9476,-1.9459,-1.947,-1.9461,-1.9443,-1.9464,-1.9449,-1.945,-1.9469,-1.9491,-1.9494,-1.9497,-1.9532,-1.954,-1.9546,0,0,0,0,0,0,-1.9503,-1.9489,-1.9476,-1.95,-1.9497,-1.9486,-1.95,-1.9484,-1.9487,-1.9483,-1.9463,-1.9461,-1.9482,-1.9477,-1.946,-1.9498,-1.9474,-1.9478,-1.95,-1.9508,-1.9513,-1.9514,-1.9428,0,0,0,0,0,-1.9515,-1.9523,-1.951,-1.9532,-1.9531,-1.9516,-1.9519,-1.9507,-1.9504,-1.9503,-1.9495,-1.9493,-1.9498,-1.9503,-1.9508,-1.9534,-1.9532,-1.9548,-1.9554,-1.9559,-1.9562,-1.9575,-1.9582,-1.9508,-1.9508,-1.9508,0,0,-1.9538,-1.9531,-1.9538,-1.954,-1.9536,-1.9546,-1.9516,-1.9527,-1.9533,-1.9504,-1.952,-1.9515,-1.9511,-1.9533,-1.9542,-1.9529,-1.9582,-1.9562,-1.9566,-1.9567,-1.9579,-1.9586,-1.9592,-1.951,-1.951,-1.951,0,0,-1.9585,-1.9581,-1.9598,-1.9596,-1.9591,-1.9581,-1.9585,-1.9576,-1.9571,-1.9586,-1.9565,-1.9572,-1.9583,-1.9581,-1.9582,-1.9628,-1.9611,-1.963,-1.966,-1.9674,-1.9679,-1.9684,-1.9701,-1.9707,-1.9634,-1.9634,-1.9634,0,-1.9614,-1.9627,-1.9609,-1.9622,-1.9623,-1.9597,-1.9615,-1.9613,-1.9611,-1.9612,-1.9598,-1.9611,-1.9606,-1.9628,-1.9639,-1.964,-1.9644,-1.9631,-1.968,-1.9685,-1.9689,-1.9705,-1.9711,-1.9636,-1.9636,-1.9635,-1.9635,0,-1.9664,-1.9673,-1.9688,-1.9686,-1.9689,-1.9704,-1.9688,-1.9693,-1.9681,-1.9672,-1.9688,-1.9682,-1.9685,-1.9689,-1.9676,-1.9708,-1.97,-1.9684,-1.9659,-1.9699,-1.9713,-1.9719,-1.9639,-1.9638,-1.9638,-1.9637,0,0,-1.9735,-1.9722,-1.9728,-1.9726,-1.972,-1.9726,-1.974,-1.9743,-1.9748,-1.9747,-1.9758,-1.9768,-1.9752,-1.9753,-1.974,-1.9752,-1.9788,-1.9733,-1.9733,-1.9743,-1.9823,-1.9835,-1.9842,-1.9777,-1.9778,-1.9779,-1.9823,0,-1.9779,-1.9802,-1.9786,-1.9811,-1.982,-1.9795,-1.9807,-1.9804,-1.9797,-1.9802,-1.9794,-1.9801,-1.978,-1.978,-1.9791,-1.9782,-1.9804,-1.9778,-1.9787,-1.9788,-1.9788,-1.9849,-1.9862,-1.9904,-1.9828,-1.9829,-1.983,0,-1.9834,-1.9835,-1.9861,-1.9852,-1.9855,-1.9867,-1.9868,-1.9874,-1.987,-1.9863,-1.9864,-1.9848,-1.9861,-1.9837,-1.9855,-1.9838,-1.984,-1.9837,-1.9838,-1.9838,-1.9811,-1.985,-1.9916,-1.9923,-1.9838,-1.9837,-1.9837,0,-1.9882,-1.9891,-1.9907,-1.9907,-1.9897,-1.9905,-1.9902,-1.9897,-1.9899,-1.99,-1.9902,-1.9905,-1.9906,-1.9909,-1.9894,-1.9878,-1.9913,-1.9888,-1.9908,-1.9908,-1.9916,-1.9916,-1.9983,-1.9919,-1.9919,-1.9919,-1.9919,0,-1.9933,-1.995,-1.9929,-1.9939,-1.9957,-1.9939,-1.9957,-1.9951,-1.9947,-1.9955,-1.9935,-1.9943,-1.9924,-1.993,-1.9919,-1.9935,-1.9936,-1.9931,-1.9928,-1.9933,-1.9933,-1.9934,-1.993,-1.992,-1.992,-1.992,-1.9919,0,-1.999,-1.9976,-1.9993,-1.9982,-1.998,-1.9994,-1.9985,-1.9994,-1.9985,-1.9996,-1.9997,-1.9983,-1.999,-1.9975,-1.998,-1.9973,-1.9995,-1.9988,-1.9996,-1.9994,-2.0015,-2.0013,-2.0084,-2.0093,-2.0024,-2.0024,-2.0025,0,-2.0023,-2.0035,-2.0026,-2.003,-2.0028,-2.0035,-2.0037,-2.002,-2.0023,-2.002,-2.0029,-2.0034,-2.0037,-2.0049,-2.0039,-2.0043,-2.0035,-2.006,-2.0035,-2.0039,-2.0034,-2.0034,-2.0035,-2.0064,-2.0065,-2.0066,-2.0067,0,-2.0083,-2.0075,-2.008,-2.0082,-2.0085,-2.0086,-2.0086,-2.009,-2.0072,-2.0077,-2.0083,-2.0086,-2.009,-2.0095,-2.0097,-2.0093,-2.0077,-2.0074,-2.0079,-2.0084,-2.0088,-2.0086,-2.001,-2.0073,-2.0072,-2.0072,-2.0071,-2.0071,-2.0128,-2.0138,-2.0133,-2.0138,-2.0136,-2.0136,-2.0144,-2.0136,-2.0141,-2.0143,-2.0133,-2.0141,-2.0137,-2.0137,-2.0135,-2.0142,-2.0131,-2.0138,-2.0139,-2.0141,-2.0144,-2.0088,-2.0142,-2.0142,-2.0142,-2.0142,-2.0142,0,-2.0186,-2.0182,-2.0187,-2.0187,-2.0191,-2.0176,-2.0174,-2.0179,-2.0187,-2.0184,-2.0188,-2.0195,-2.02,-2.0191,-2.0194,-2.0201,-2.0194,-2.0203,-2.0202,-2.0201,-2.0154,-2.015,-2.0209,-2.0209,-2.0209,-2.0209,-2.0209,-2.0209,-2.0217,-2.0232,-2.0225,-2.0239,-2.0234,-2.0243,-2.0243,-2.0243,-2.0241,-2.025,-2.0254,-2.0248,-2.0243,-2.0246,-2.0249,-2.0246,-2.0249,-2.026,-2.0254,-2.0211,-2.0204,-2.0198,-2.0194,-2.0261,-2.0261,-2.03,-2.0301,-2.0301]}]]